Weather History for KMTH - December, 2012

Change the Weather History Date:

Monday, December 17, 2012

  Actual Average Record
Temperature  
Mean Temperature 79 °F 72 °F  
Max Temperature 85 °F 77 °F 85 °F (2012)
Min Temperature 73 °F 67 °F 56 °F (2010)
Degree Days  
Heating Degree Days 0 1  
Month to date heating degree days 0 10  
Since 1 July heating degree days 1 11  
Cooling Degree Days 14 7  
Month to date cooling degree days 205 141  
Year to date cooling degree days 5190 4905  
Growing Degree Days 28 (Base 50)    
Moisture  
Dew Point 67 °F    
Average Humidity 72    
Maximum Humidity 84    
Minimum Humidity 59    
Precipitation  
Precipitation 0.00 in 0.08 in 2.24 in (2006)
Month to date precipitation 0.29 1.12  
Year to date precipitation 44.37 45.27  
Snow  
Snow 0.00 in - - ()
Month to date snowfall 0.0  
Since 1 July snowfall 0.0  
Snow Depth 0.00 in    
Sea Level Pressure  
Sea Level Pressure 29.96 in    
Wind  
Wind Speed 3 mph (South)    
Max Wind Speed 9 mph    
Max Gust Speed 15 mph    
Visibility 10 miles    
Events      
T = Trace of Precipitation, MM = Missing Value Source: NWS Daily Summary

Daily Weather History Graph

Daily Weather History Graph

Search for Another Location

Airport or City:

Trip Planner

Search our weather history database for the weather conditions in past years. The results will help you decide how hot, cold, wet, or windy it might be!

Date:

Astronomy

Dec. 17, 2012 Rise Set
Actual Time 7:02 AM EST 5:38 PM EST
Civil Twilight 6:37 AM EST 6:03 PM EST
Nautical Twilight 6:08 AM EST 6:32 PM EST
Astronomical Twilight 5:40 AM EST 7:00 PM EST
Moon 10:35 AM EST (12/17) 10:30 PM EST (12/17)
Length of Visible Light 11h 26m
Length of Day
10h 36m
Waxing Crescent, 24% of the Moon is Illuminated
Dec 17
Waxing Crescent
Dec 20
First Quarter
Dec 28
Full
Jan 4
Last Quarter
Jan 11
New

Hourly Weather History & Observations

Time (EST) Temp. Heat Index Dew Point Humidity Pressure Visibility Wind Dir Wind Speed Gust Speed Precip Events Conditions
12:53 AM 75.9 °F - 64.0 °F 67% 29.97 in 10.0 mi SSE 4.6 mph - N/A   Clear
1:53 AM 75.0 °F - 64.9 °F 71% 29.97 in 10.0 mi SSE 4.6 mph - N/A   Partly Cloudy
2:53 AM 75.0 °F - 64.0 °F 69% 29.97 in 10.0 mi South 3.5 mph - N/A   Clear
3:53 AM 75.0 °F - 64.0 °F 69% 29.96 in 10.0 mi Calm Calm - N/A   Clear
4:53 AM 73.9 °F - 64.9 °F 73% 29.96 in 10.0 mi Calm Calm - N/A   Clear
5:53 AM 73.9 °F - 64.9 °F 73% 29.96 in 10.0 mi Calm Calm - N/A   Clear
6:53 AM 75.9 °F - 66.0 °F 71% 29.96 in 10.0 mi SE 3.5 mph - N/A   Mostly Cloudy
7:53 AM 77.0 °F - 66.9 °F 71% 29.96 in 10.0 mi SSE 4.6 mph - N/A   Mostly Cloudy
8:53 AM 79.0 °F - 66.9 °F 66% 29.97 in 10.0 mi South 5.8 mph - N/A   Partly Cloudy
9:53 AM 81.0 °F 83.8 °F 68.0 °F 65% 29.99 in 10.0 mi South 4.6 mph - N/A   Clear
10:53 AM 82.9 °F 85.8 °F 68.0 °F 60% 29.98 in 10.0 mi South 5.8 mph - N/A   Clear
11:53 AM 84.0 °F 87.0 °F 68.0 °F 58% 29.97 in 10.0 mi South 6.9 mph - N/A   Clear
12:53 PM 84.0 °F 87.0 °F 68.0 °F 58% 29.94 in 10.0 mi South 6.9 mph - N/A   Clear
1:53 PM 82.9 °F 85.8 °F 68.0 °F 60% 29.92 in 10.0 mi South 5.8 mph - N/A   Clear
2:53 PM 81.0 °F 83.8 °F 68.0 °F 65% 29.91 in 10.0 mi South 6.9 mph - N/A   Partly Cloudy
3:53 PM 81.0 °F 83.3 °F 66.9 °F 62% 29.91 in 10.0 mi Variable 5.8 mph - N/A   Clear
4:53 PM 79.0 °F - 68.0 °F 69% 29.93 in 10.0 mi SSW 3.5 mph - N/A   Clear
7:53 PM 75.0 °F - 68.0 °F 79% 29.98 in 10.0 mi Calm Calm - N/A   Scattered Clouds
8:53 PM 75.9 °F - 69.1 °F 79% 29.98 in 10.0 mi Calm Calm - N/A   Overcast
9:53 PM 73.9 °F - 68.0 °F 82% 29.98 in 10.0 mi Calm Calm - N/A   Clear
10:53 PM 73.9 °F - 68.0 °F 82% 29.98 in 10.0 mi Calm Calm - N/A   Scattered Clouds
11:53 PM 73.0 °F - 68.0 °F 84% 29.97 in 10.0 mi Calm Calm - N/A   Clear